Regional Weather Roundup
Issued by NWS

Home | Current Version | Previous Version | Graphics & Text | Print | Product List | Glossary On
Versions: 1 2 3 4 5 6 7 8 9 10 11 12 13 14 15 16 17 18 19 20 21 22 23 24 25 26 27 28 29 30 31 32 33 34 35 36 37 38 39 40 41 42 43 44 45 46 47 48 49 50
000
ASUS43 KOAX 191102
RWRNE

WEATHER ROUNDUP FOR NEBRASKA
NATIONAL WEATHER SERVICE OMAHA NE
600 AM CDT THU APR 19 2018

NOTES: SATELLITE DATA IS BEING USED TO AUGMENT CLOUD COVER ABOVE
       12000 FEET.
       "FAIR" INDICATES FEW OR NO CLOUDS BELOW 12,000 FEET WITH NO
       SIGNIFICANT WEATHER AND/OR OBSTRUCTIONS TO VISIBILITY.


NEZ001>004-019>022-054>056-191200-
NEBRASKA PANHANDLE

CITY           SKY/WX    TMP DP  RH WIND       PRES   REMARKS
SCOTTSBLUFF    PTCLDY    30  28  92 E9        30.31S WCI  22
ALLIANCE       PTCLDY    27  26  96 S3        30.32R
CHADRON        CLEAR     26  25  96 CALM      30.33R
GORDON         PTSUNNY   24  23  94 CALM      30.34R
KIMBALL        CLEAR     29  24  82 SE7       30.31R WCI  22
SIDNEY         CLEAR     27  24  89 SE8       30.33R WCI  19
$$

NEZ057>060-069>072-079>082-191200-
SOUTHWEST NEBRASKA

CITY           SKY/WX    TMP DP  RH WIND       PRES   REMARKS
NORTH PLATTE   CLEAR     24  21  88 CALM      30.39R
IMPERIAL       CLEAR     27  25  92 CALM      30.37R
LEXINGTON      CLEAR     27  25  90 W7        30.40R WCI  20
MCCOOK         CLEAR     25  23  92 SW8       30.40R WCI  16
OGALLALA       CLEAR     28  26  92 CALM      30.36S
$$

NEZ005>010-023>029-035>040-094-191200-
NORTH CENTRAL NEBRASKA

CITY           SKY/WX    TMP DP  RH WIND       PRES   REMARKS
VALENTINE      CLEAR     23  21  92 W5        30.37R WCI  17
AINSWORTH      CLEAR     25  25 100 CALM      30.37R
BROKEN BOW     CLEAR     28  25  88 NW5       30.38R WCI  23
O`NEILL        CLEAR     30  29  94 N8        30.37S WCI  22
ORD            CLEAR     27  26  96 NW5       30.37R WCI  22
THEDFORD       CLEAR     26  25  96 CALM      30.38R
$$

NEZ041-046>049-061>064-073>077-083>087-191200-
SOUTH CENTRAL NEBRASKA

CITY           SKY/WX    TMP DP  RH WIND       PRES   REMARKS
GRAND ISLAND   CLEAR     29  27  92 NW9       30.38R WCI  20
AURORA         CLEAR     27  27  99 NW7       30.37R WCI  20
HASTINGS       CLEAR     26  25  96 NW3       30.38R
HEBRON         CLEAR     29  27  94 CALM      30.38R
HOLDREGE       CLEAR     27  26  96 W5        30.39R WCI  22
KEARNEY        CLEAR     27  25  92 NW8       30.40R WCI  19
YORK             N/A     28  28 100 NW9       30.37R WCI  20
$$

NEZ011>018-030>034-042>045-191200-
NORTHEAST NEBRASKA

CITY           SKY/WX    TMP DP  RH WIND       PRES   REMARKS
NORFOLK        CLEAR     28  27  96 NW7       30.37R WCI  21
ALBION         CLEAR     29  27  91 NW6       30.37R WCI  23
BLAIR          CLEAR     31  29  93 N8        30.35R WCI  24
COLUMBUS       CLEAR     28  27  96 NW9       30.38R WCI  19
FREMONT        CLEAR     28  28 100 W6        30.37R WCI  22
TEKAMAH        CLEAR     29  27  92 NW8       30.37R WCI  21
WAYNE          CLEAR     29  28  96 CALM      30.39R
$$

NEZ050>053-065>068-078-088>093-191200-
SOUTHEAST NEBRASKA

CITY           SKY/WX    TMP DP  RH WIND       PRES   REMARKS
LINCOLN        CLEAR     24  23  96 N5        30.39R WCI  18
OMAHA EPPLEY   CLEAR     28  26  92 N8        30.36R WCI  20
BEATRICE       CLEAR     28  26  94 N6        30.37R WCI  21
FALLS CITY     CLEAR     28  25  88 NW7       30.36R WCI  21
NEBRASKA CITY  CLEAR     29  29 100 W7        30.36R WCI  22
PLATTSMOUTH    CLEAR     29  28  93 NW8       30.35R WCI  21
$$

NEZ044-045-051>053-067-191200-
OMAHA AREA

CITY           SKY/WX    TMP DP  RH WIND       PRES   REMARKS
OMAHA EPPLEY   CLEAR     28  26  92 N8        30.36R WCI  20
BLAIR          CLEAR     31  29  93 N8        30.35R WCI  24
FREMONT        CLEAR     28  28 100 W6        30.37R WCI  22
MILLARD        CLEAR     30  27  88 W5        30.36R WCI  25
OFFUTT AFB     CLEAR     30  27  87 W6        30.35R WCI  24
PLATTSMOUTH    CLEAR     29  28  93 NW8       30.35R WCI  21
WAHOO          FAIR      32  29  90 NW6       30.37R WCI  26
$$




USA.gov is the U.S. government's official web portal to all federal, state and local government web resources and services.